Location: Unspecified
(17.6330°N, 0.0000°E)
Time: 11:05:52
(UTC+00:00)

S-56A Canister/Altair - Pass Details

Date: 28 June 2019
Orbit: 632 x 2500 km, 38.9° (Epoch: 18 July)

Event Time Altitude Azimuth Distance (km) Brightness Sun altitude
Rises 14:13:17 0° 267° (W) 6,004 12.5 59.1°
Reaches altitude 10° 14:18:12 10° 276° (W) 4,803 12.3 58.0°
Maximum altitude 14:29:08 31° 333° (NNW) 2,807 11.3 55.5°
Drops below altitude 10° 14:37:14 10° 33° (NNE) 3,505 10.9 53.6°
Sets 14:40:13 0° 45° (NE) 4,217 11.1 52.9°
